EHI
0 0 0 0 0 0 0 0 0 0 0 0 0 0 0 0 0 0 0 0 0 0 0 0 0 0 0 0 0 0 0 0 0 0 0 0 0 0 0 0 0 0 0
0 0 0 0 0 0 0 0 0 0 0 0 0 0 0 0 0 0 0 0 0 0 0 0 0 0 0 0 0 0 0 0 0 0 0 0 0 0 0 0 0 0 0
0 0 0 0 0 0 0 0 0 0 0 0 0 0 0 0 0 0 0 0 0 0 0 0 0 0 0 0 0 0 0 0 0 0 0 0 0 0 0 0 0 0 0
0 0 0 0 0 0 0 0 0 0 0 0 0 0 0 0 0 0 0 0 0 0 0 0 0 0 0 0 0 0 0 0 0 0 0 0 0 0 0 0 0 0 0
0 0 0 0 0 0 0 0 0 0 0 0 0 0 0 0 0 0 0 0 0 0 0 0 0 0 0 0 0 0 0 0 0 0 0 0 0 0 0 0 0 0 0
0 0 0 0 0 0 0 0 0 0 0 0 0 0 0 0 0 0 0 0 0 0 0 0 0 0 0 0 0 0 0 0 0 0 0 0 0 0 0 0 0 0 0
0 0 0 0 0 0 0 0 0 0 0 0 0 0 0 0 0 0 0 0 0 0 0 0 0 0 0 0 0 0 0 0 0 0 0 0 0 0 0 0 0 0 0
0 0 0 0 0 0 0 0 0 0 0 0 0 0 0 0 0 0 0 0 0 0 0 0 0 0 0 0 0 0 0 0 0 0 0 0 0 0 0 0 0 0 0
0 0 0 0 0 0 0 0 0 0 0 0 0 0 0 0 0 0 0 0 0 0 0 0 0 0 0 0 0 0 0 0 0 0 0 0 0 0 0 0 0 0 0
0 0 0 0 0 0 0 0 0 0 0 0 0 0 0 0 0 0 0 0 0 0 0 0 0 0 0 0 0 0 0 0 0 0 0 0 0 0 0 0 0 0 0
0 0 0 0 0 0 0 0 0 0 0 0 0 0 0 0 0 0 0 0 0 0 0 0 0 0 0 0 0 0 0 0 0 0 0 0 0 0 0 0 0 0 0
0 0 0 0 0 0 0 0 0 0 0 0 0 0 0 0 0 0 0 0 0 0 0 0 0 0 0 0 0 0 0 0 0 0 0 0 0 0 0 0 0 0 0
0 0 0 0 0 0 0 0 0 0 0 0 0 0 0 0 0 0 0 0 0 0 0 0 0 0 0 0 0 0 0 0 0 0 0 0 0 0 0 0 0 0 0
0 0 0 0 0 0 0 0 0 0 0 0 0 0 0 0 0 0 0 0 0 0 0 0 0 0 0 0 0 0 0 0 0 0 0 0 0 0 0 0 0 0 0
0 0 0 0 0 0 0 0 0 0 0 0 0 0 0 0 0 0 0 0 0 0 0 0 0 0 0 0 0 0 0 0 0 0 0 0 0 0 0 0 0 0 0
0 0 0 0 0 0 0 0 0 0 0 0 0 0 0 0 0 0 0 0 0 0 0 0 0 0 0 0 0 0 0 0 0 0 0 0 0 0 0 0 0 0 0
0 0 0 0 0 0 0 0 0 0 0 0 0 0 0 0 0 0 0 0 0 0 0 0 0 0 0 0 0 0 0 0 0 0 0 0 0 0 0 0 0 0 0
0 0 0 0 0 0 0 0 0 0 0 0 0 0 0 0 0 0 0 0 0 0 0 0 0 0 0 0 0 0 0 0 0 0 0 0 0 0 0 0 0 0 0
0 0 0 0 0 0 0 0 0 0 0 0 0 0 0 0 0 0 0 0 0 0 0 0 0 0 0 0 0 0 0 0 0 0 0 0 0 0 0 0 0 0 0
0 0 0 0 0 0 0 0 0 0 0 0 0 0 0 0 0 0 0 0 0 0 0 0 0 0 0 0 0 0 0 0 0 0 0 0 0 0 0 0 0 0 0
0 0 0 0 0 0 0 0 0 0 0 0 0 0 0 0 0 0 0 0 0 0 0 0 0 0 0 0 0 0 0 0 0 0 0 0 0 0 0 0 0 0 0
0 0 0 0 0 0 0 0 0 0 0 0 0 0 0 0 0 0 0 0 0 0 0 0 0 0 0 0 0 0 0 0 0 0 0 0 0 0 0 0 0 0 0
0 0 0 0 0 0 0 0 0 0 0 0 0 0 0 0 0 0 0 0 0 0 0 0 0 0 0 0 0 0 0 0 0 0 0 0 0 0 0 0 0 0 0
0 0 0 0 0 0 0 0 0 0 0 0 0 0 0 0 0 0 0 0 0 0 0 0 0 0 0 0 0 0 0 0 0 0 0 0 0 0 0 0 0 0 0
0 0 0 0 0 0 0 0 0 0 0 0 0 0 0 0 0 0 0 0 0 0 0 0 0 0 0 0 0 0 0 0 0 0 0 0 0 0 0 0 0 0 0
0 0 0 0 0 0 0 0 0 0 0 0 0 0 0 0 0 0 0 0 0 0 0 0 0 0 0 0 0 0 0 0 0 0 0 0 0 0 0 0 0 0 0
Wind_Speed
5 4 4 2 2 1 1 1 2 2 3 3 4 5 5 6 5 5 6 6 7 7 7 7 8 7 6 5 5 5 6 7 13 10 5 6 8 9 11 9 9 9 10
5 4 3 2 1 1 1 2 2 3 3 4 5 5 6 6 6 6 7 7 7 8 8 8 9 7 8 6 6 7 7 7 10 15 9 6 8 8 9 10 10 10 8
5 4 3 2 1 2 2 3 3 4 4 5 5 6 7 7 7 7 7 8 8 8 8 9 9 8 9 7 7 8 7 9 8 11 12 7 7 7 8 9 10 9 10
5 4 3 3 3 3 3 4 4 4 5 6 6 7 7 7 7 8 8 8 8 9 9 9 9 9 10 9 9 9 9 9 9 10 11 9 7 6 6 7 8 6 8
5 4 3 3 3 3 4 5 5 5 6 6 7 7 7 7 7 8 7 8 8 9 8 8 9 13 16 14 12 9 8 8 8 10 11 10 8 5 6 6 9 7 7
4 4 3 3 3 4 5 5 5 6 6 6 7 8 8 8 15 19 15 8 7 8 9 8 9 12 16 21 23 22 19 13 10 10 10 11 11 8 7 7 8 9 9
4 3 3 4 4 5 5 5 6 6 6 7 8 8 9 11 19 20 20 12 8 8 8 8 9 10 16 10 16 21 20 23 22 15 13 13 12 9 9 10 10 11 11
3 4 4 4 5 6 6 6 7 6 7 7 8 9 9 12 20 21 21 11 8 8 9 9 10 10 11 13 11 11 11 12 15 12 11 13 13 12 12 13 13 12 10
4 5 5 5 6 6 7 8 7 6 7 7 8 9 9 12 19 21 21 8 7 9 9 9 10 10 18 23 15 12 12 11 16 22 23 22 24 24 18 9 7 9 10
6 6 5 5 6 7 8 8 7 6 8 8 8 8 9 10 17 21 21 7 7 8 8 9 16 17 21 24 14 11 13 12 10 11 14 16 14 14 20 11 7 9 9
5 5 5 6 6 7 7 7 7 7 8 8 9 9 9 11 16 20 21 9 7 8 8 6 8 20 24 25 22 12 16 17 10 9 8 7 7 6 7 7 7 7 8
4 5 6 6 6 6 7 7 7 7 8 8 9 9 7 9 13 16 21 20 18 11 9 7 9 22 24 25 19 18 24 20 6 6 7 6 6 6 6 6 7 7 8
5 6 7 7 6 6 6 7 7 6 7 8 7 9 8 6 9 19 22 22 23 14 9 18 22 25 23 16 18 22 18 7 5 7 7 7 5 5 5 5 6 6 7
6 7 6 6 7 6 6 6 6 6 7 8 8 9 9 7 6 7 8 10 15 13 11 15 21 21 17 17 15 11 6 6 7 7 6 6 5 4 5 4 5 5 5
6 7 6 6 7 7 6 6 7 7 8 10 8 8 9 10 11 20 16 9 8 10 12 8 6 6 6 6 6 6 5 5 6 5 6 6 5 5 5 4 4 4 4
6 6 5 5 6 6 7 8 12 14 19 21 21 19 14 19 25 25 25 24 25 24 16 7 7 7 7 7 7 6 5 6 6 6 6 6 6 6 5 4 4 4 5
7 7 6 6 6 6 6 8 10 12 16 19 21 22 22 24 25 25 24 24 23 21 10 7 7 7 7 7 7 7 7 6 5 6 6 6 6 5 5 5 4 4 4
7 9 8 6 6 6 7 7 8 10 11 9 12 19 22 23 23 23 24 20 11 9 6 8 8 8 7 7 7 7 6 6 5 6 6 6 5 5 5 5 4 4 5
7 6 6 6 6 7 7 7 8 10 11 11 9 11 17 19 21 22 19 9 8 8 8 8 8 8 7 7 7 7 7 7 6 6 6 6 5 5 5 5 5 8 7
6 12 12 7 6 7 7 8 9 9 10 10 10 10 9 10 9 9 7 7 8 9 8 8 8 8 8 7 7 7 7 7 7 6 6 6 5 5 6 6 5 5 5
6 8 15 10 7 7 8 8 9 9 10 11 10 12 19 12 9 9 8 8 8 8 9 8 8 8 7 7 7 7 8 7 7 6 6 6 5 5 5 6 6 6 5
6 7 7 8 8 8 9 9 9 10 11 12 11 11 19 12 9 9 9 9 8 8 8 8 8 7 7 7 7 8 8 8 7 6 6 6 6 6 6 6 6 5 5
7 8 8 8 8 13 12 9 9 10 11 11 11 11 10 9 9 9 9 8 8 8 7 8 9 8 8 7 8 8 8 8 7 7 7 7 7 6 6 6 7 6 6
7 9 9 9 9 9 10 10 10 10 11 11 10 10 10 9 9 10 10 9 8 8 8 8 9 11 13 10 8 8 8 8 8 7 9 9 8 7 6 6 7 7 7
7 8 9 9 10 10 10 11 11 11 11 11 11 10 10 10 10 10 9 9 10 10 10 10 9 10 12 13 12 10 14 18 17 11 8 8 9 9 8 8 7 7 7
8 9 9 9 9 10 10 11 11 11 11 11 11 10 10 10 10 10 9 9 9 9 10 9 10 12 13 12 14 17 20 21 20 20 12 8 9 9 8 8 9 9 8
Wind_Direction
155 152 146 153 150 143 177 249 267 276 290 294 294 296 295 294 291 287 281 281 277 277 277 273 270 268 266 262 257 256 257 262 281 286 264 261 260 266 276 273 272 271 275
158 151 152 154 150 173 250 268 273 281 286 286 289 291 289 288 286 283 283 283 278 279 279 276 274 275 268 263 260 260 263 260 272 286 285 269 260 260 264 267 274 274 266
152 149 154 170 199 238 259 271 277 280 286 288 286 285 285 285 284 280 275 275 273 272 272 272 273 273 273 269 263 265 266 270 267 277 284 276 268 264 267 269 268 269 271
153 157 177 209 229 246 260 270 274 277 281 283 281 279 279 281 282 279 276 273 271 269 267 265 266 265 268 270 271 266 266 269 270 274 281 281 273 262 261 269 275 263 267
157 173 205 224 238 253 265 270 273 275 275 276 279 281 280 281 278 279 275 270 270 271 269 264 262 271 276 280 281 273 268 271 275 279 282 285 280 274 267 265 277 277 269
170 197 216 232 248 259 265 269 273 275 276 275 275 276 279 283 297 303 302 284 273 272 275 271 271 279 285 289 291 291 288 283 280 278 281 281 282 273 268 268 275 280 280
185 209 227 239 254 262 266 270 271 272 272 276 275 273 273 280 295 302 303 300 281 274 273 275 282 282 292 281 284 287 286 284 282 280 278 278 279 273 270 271 266 268 270
200 227 239 244 255 265 268 268 269 267 269 271 273 272 273 280 296 303 305 300 280 272 268 268 272 274 276 283 273 270 267 269 273 274 266 266 267 265 258 263 268 269 266
221 237 243 243 253 262 265 267 268 269 272 270 269 272 273 281 294 302 303 289 277 274 269 268 274 273 281 291 289 280 278 273 279 280 279 279 278 282 283 279 273 276 279
231 239 245 246 250 257 262 267 268 267 270 274 275 272 272 275 289 299 302 286 279 278 273 267 278 285 289 293 288 280 282 281 275 278 281 284 284 283 284 276 268 272 276
237 247 254 253 253 257 263 265 270 273 276 276 278 276 271 274 288 295 299 294 278 280 280 274 269 288 292 292 291 283 281 286 278 277 279 275 271 266 264 260 251 253 264
245 254 259 261 263 268 265 271 272 274 279 280 282 283 273 273 285 292 296 296 296 289 284 278 276 289 291 292 293 289 292 297 290 284 280 277 273 268 261 257 255 250 251
253 259 264 268 266 264 265 272 278 275 276 282 282 285 285 271 276 291 296 298 297 293 281 287 292 295 297 295 290 291 294 291 285 282 278 274 266 265 268 268 267 263 258
257 265 267 270 272 270 265 265 270 272 275 280 282 285 287 283 272 271 271 281 288 290 286 286 292 294 292 288 289 290 278 266 273 271 273 272 272 270 270 267 271 272 271
261 266 270 268 269 274 269 262 268 257 262 277 277 275 285 290 285 293 296 289 283 279 290 281 277 278 275 273 271 267 263 269 276 267 268 273 274 271 271 266 261 264 262
264 268 268 269 270 271 278 284 276 276 286 287 288 288 287 289 296 299 301 301 302 300 300 288 285 282 281 280 279 274 265 262 263 266 269 270 272 272 274 269 259 259 264
257 266 269 267 270 272 276 283 292 292 286 287 289 292 292 295 298 300 301 302 302 304 297 283 281 280 278 278 275 273 271 265 262 264 267 267 266 267 270 270 262 260 262
259 268 273 265 265 268 272 274 279 288 295 289 286 290 294 296 297 300 302 305 298 293 272 274 275 274 273 273 274 273 272 268 263 262 262 262 261 263 265 263 258 258 265
264 265 266 264 264 266 269 273 276 279 284 289 289 288 291 295 296 296 298 288 282 281 276 273 271 271 270 269 269 268 267 267 264 263 262 259 257 256 258 256 255 265 267
265 276 283 277 269 270 271 275 278 280 283 284 285 287 290 290 284 284 278 268 273 276 276 275 272 268 267 265 265 264 264 263 260 258 259 258 253 251 254 253 251 253 251
267 275 284 284 272 272 274 275 276 279 281 282 282 285 291 291 287 285 281 275 273 275 275 275 273 270 265 261 261 260 260 261 256 254 257 254 251 253 250 249 248 247 248
267 268 268 270 274 274 277 275 277 279 281 284 286 288 293 289 282 281 279 277 273 270 270 272 272 267 263 261 260 260 260 261 257 253 252 250 250 251 249 248 248 244 241
267 272 275 274 274 281 285 280 280 281 281 282 285 288 287 281 279 279 280 279 276 274 272 271 272 270 264 258 255 254 256 258 256 253 252 252 249 247 244 245 244 242 240
270 273 277 280 280 278 280 281 280 281 282 282 283 284 284 282 281 282 281 279 278 276 273 272 271 271 268 265 261 255 251 254 254 252 249 249 248 247 243 242 241 239 237
275 277 280 281 283 284 284 284 283 284 284 284 284 283 283 282 281 281 279 278 277 277 276 274 273 272 269 265 263 260 262 266 268 261 246 243 243 240 239 241 239 236 233
281 283 284 284 283 283 283 284 285 284 283 283 282 281 281 281 281 281 280 278 277 277 277 276 271 270 271 271 267 267 270 271 271 269 260 245 239 237 233 236 234 234 232